Tracking 30995 objects as of 5-Jul-2025
HD Live streaming from Space Station
objects crossing your sky now

ONEWEB-0246

Track ONEWEB-0246 now!
10-day predictions
ONEWEB-0246 is classified as:


NORAD ID: 48786
Int'l Code: 2021-045V
Perigee: 1,207.4 km
Apogee: 1,210.4 km
Inclination: 87.9 °
Period: 109.5 minutes
Semi major axis: 7579 km
RCS: Unknown
Launch date: May 28, 2021
Source: United Kingdom (UK)
Launch site: VOSTOCHNY COSMODROME (VOSTO)
Your satellite tracking list
Your tracking list is empty




NASA's NSSDC Master Catalog

Two Line Element Set (TLE):
1 48786U 21045V   25186.35601036 -.00000081  00000-0 -25007-3 0  9999
2 48786  87.9064 328.3174 0001968 102.1757 257.9594 13.15547992198672
Source of the keplerian elements: AFSPC